When you browse on this site, cookies collect data to enhance your experience and personalize the content and advertising you see.
Visit our Privacy Policy to learn more. By continuing to use the site, you agree to this use of cookies and data.
  • In Hungary
  • List of Countries
  • For 7 days
  • Water Temperature
  • Weather Map
  • News
  • Weather Widgets
  • user-avatar
    Login

    Hourly Weather Arrentela

    Today, 17 November, Sunday

    Time Temperature Precipitation Wind Pressure Humidity
    00:00 +14°C° 0.6 mm 6 mps 761 mmHg 79%
    01:00 +14°C° 0.6 mm 6 mps 761 mmHg 84%
    02:00 +15°C° 0.6 mm 7 mps 760 mmHg 88%
    03:00 +15°C° 0.2 mm 6 mps 760 mmHg 88%
    04:00 +15°C° 0.2 mm 6 mps 760 mmHg 88%
    05:00 +15°C° 0.2 mm 6 mps 760 mmHg 87%
    06:00 +15°C° 0 mm 6 mps 760 mmHg 85%
    07:00 +15°C° 0 mm 6 mps 760 mmHg 83%
    08:00 +16°C° 0 mm 6 mps 761 mmHg 80%
    09:00 +16°C° 0.1 mm 6 mps 760 mmHg 79%
    10:00 +16°C° 0.1 mm 7 mps 760 mmHg 78%
    11:00 +17°C° 0.1 mm 7 mps 760 mmHg 77%
    12:00 +17°C° 0.3 mm 7 mps 760 mmHg 78%
    13:00 +17°C° 0.3 mm 7 mps 759 mmHg 78%
    14:00 +17°C° 0.3 mm 7 mps 759 mmHg 78%
    15:00 +16°C° 0.4 mm 7 mps 759 mmHg 80%
    16:00 +16°C° 0.4 mm 7 mps 759 mmHg 83%
    17:00 +15°C° 0.4 mm 7 mps 759 mmHg 86%
    18:00 +14°C° 0 mm 7 mps 759 mmHg 84%
    19:00 +13°C° 0 mm 6 mps 760 mmHg 82%
    20:00 +11°C° 0 mm 6 mps 760 mmHg 81%
    21:00 +11°C° 0 mm 6 mps 760 mmHg 80%
    22:00 +10°C° 0 mm 5 mps 760 mmHg 79%
    23:00 +10°C° 0 mm 5 mps 761 mmHg 78%

    Tomorrow, 18 November, Monday

    Time Temperature Precipitation Wind Pressure Humidity
    00:00 +10°C° 0 mm 5 mps 760 mmHg 78%
    01:00 +9°C° 0 mm 5 mps 760 mmHg 78%
    02:00 +9°C° 0 mm 5 mps 760 mmHg 78%
    03:00 +9°C° 0 mm 5 mps 760 mmHg 79%
    04:00 +9°C° 0 mm 5 mps 760 mmHg 80%
    05:00 +9°C° 0 mm 5 mps 760 mmHg 81%
    06:00 +10°C° 0 mm 5 mps 761 mmHg 77%
    07:00 +12°C° 0 mm 5 mps 761 mmHg 73%
    08:00 +13°C° 0 mm 6 mps 762 mmHg 69%
    09:00 +13°C° 0 mm 5 mps 762 mmHg 65%
    10:00 +14°C° 0 mm 5 mps 761 mmHg 60%
    11:00 +15°C° 0 mm 5 mps 761 mmHg 56%
    12:00 +15°C° 0 mm 6 mps 761 mmHg 57%
    13:00 +15°C° 0 mm 6 mps 761 mmHg 59%
    14:00 +15°C° 0 mm 6 mps 761 mmHg 60%
    15:00 +14°C° 0 mm 6 mps 761 mmHg 66%
    16:00 +13°C° 0 mm 5 mps 761 mmHg 71%
    17:00 +12°C° 0 mm 5 mps 761 mmHg 76%
    18:00 +12°C° 0 mm 4 mps 761 mmHg 77%
    19:00 +11°C° 0 mm 3 mps 761 mmHg 78%
    20:00 +11°C° 0 mm 3 mps 762 mmHg 79%
    21:00 +12°C° 0 mm 2 mps 762 mmHg 78%
    22:00 +12°C° 0 mm 2 mps 761 mmHg 78%
    23:00 +12°C° 0 mm 2 mps 761 mmHg 77%

    Day after tomorrow, 19 November, Tuesday

    Time Temperature Precipitation Wind Pressure Humidity
    00:00 +12°C° 0 mm 1 mps 761 mmHg 77%
    01:00 +12°C° 0 mm 1 mps 761 mmHg 76%
    02:00 +12°C° 0 mm 1 mps 761 mmHg 75%
    03:00 +12°C° 0 mm 1 mps 761 mmHg 75%
    04:00 +12°C° 0 mm 1 mps 761 mmHg 75%
    05:00 +12°C° 0 mm 1 mps 760 mmHg 75%
    06:00 +13°C° 0 mm 2 mps 760 mmHg 74%
    07:00 +13°C° 0 mm 2 mps 761 mmHg 74%
    08:00 +12°C° 0 mm 3 mps 761 mmHg 73%
    09:00 +13°C° 0 mm 4 mps 760 mmHg 70%
    10:00 +14°C° 0 mm 5 mps 760 mmHg 67%
    11:00 +15°C° 0 mm 6 mps 759 mmHg 64%
    12:00 +15°C° 0 mm 6 mps 759 mmHg 66%
    13:00 +15°C° 0 mm 6 mps 758 mmHg 67%
    14:00 +15°C° 0 mm 6 mps 758 mmHg 68%
    15:00 +15°C° 0.3 mm 7 mps 757 mmHg 72%
    16:00 +14°C° 0.3 mm 7 mps 757 mmHg 76%
    17:00 +14°C° 0.3 mm 7 mps 757 mmHg 80%
    18:00 +14°C° 0.5 mm 7 mps 757 mmHg 82%
    19:00 +14°C° 0.5 mm 7 mps 757 mmHg 84%
    20:00 +14°C° 0.5 mm 7 mps 757 mmHg 87%
    21:00 +14°C° 0.6 mm 6 mps 756 mmHg 87%
    22:00 +14°C° 0.6 mm 6 mps 756 mmHg 87%
    23:00 +14°C° 0.6 mm 5 mps 756 mmHg 87%

    20 November, Wednesday

    Time Temperature Precipitation Wind Pressure Humidity
    00:00 +13°C° 0.2 mm 4 mps 755 mmHg 86%
    01:00 +13°C° 0.2 mm 4 mps 755 mmHg 84%
    02:00 +12°C° 0.2 mm 3 mps 755 mmHg 83%
    03:00 +12°C° 0 mm 3 mps 754 mmHg 82%
    04:00 +12°C° 0 mm 2 mps 754 mmHg 81%
    05:00 +12°C° 0 mm 2 mps 754 mmHg 81%
    06:00 +12°C° 0 mm 2 mps 754 mmHg 78%
    07:00 +12°C° 0 mm 3 mps 754 mmHg 76%
    08:00 +13°C° 0 mm 3 mps 754 mmHg 74%
    09:00 +14°C° 0.4 mm 4 mps 754 mmHg 73%
    10:00 +15°C° 0.4 mm 5 mps 754 mmHg 71%
    11:00 +16°C° 0.4 mm 6 mps 754 mmHg 70%
    12:00 +16°C° 0.7 mm 6 mps 754 mmHg 69%
    13:00 +16°C° 0.7 mm 6 mps 753 mmHg 69%
    14:00 +16°C° 0.7 mm 7 mps 753 mmHg 69%
    15:00 +15°C° 0.1 mm 6 mps 753 mmHg 73%
    16:00 +14°C° 0.1 mm 5 mps 753 mmHg 77%
    17:00 +13°C° 0.1 mm 5 mps 753 mmHg 81%
    18:00 +13°C° 0.1 mm 5 mps 753 mmHg 82%
    19:00 +13°C° 0.1 mm 5 mps 753 mmHg 83%
    20:00 +13°C° 0.1 mm 5 mps 753 mmHg 84%
    21:00 +13°C° 0.2 mm 5 mps 753 mmHg 83%
    22:00 +13°C° 0.2 mm 5 mps 753 mmHg 82%
    23:00 +13°C° 0.2 mm 6 mps 753 mmHg 81%

    21 November, Thursday

    Time Temperature Precipitation Wind Pressure Humidity
    00:00 +13°C° 0 mm 5 mps 753 mmHg 81%
    01:00 +13°C° 0 mm 5 mps 753 mmHg 81%
    02:00 +13°C° 0 mm 5 mps 752 mmHg 82%
    03:00 +13°C° 0.2 mm 5 mps 752 mmHg 82%
    04:00 +13°C° 0.2 mm 5 mps 752 mmHg 83%
    05:00 +13°C° 0.2 mm 5 mps 752 mmHg 83%
    06:00 +13°C° 0.1 mm 4 mps 752 mmHg 81%
    07:00 +14°C° 0.1 mm 4 mps 753 mmHg 79%
    08:00 +14°C° 0.1 mm 4 mps 753 mmHg 77%
    09:00 +15°C° 0.1 mm 4 mps 753 mmHg 73%
    10:00 +15°C° 0.1 mm 5 mps 753 mmHg 68%
    11:00 +16°C° 0.1 mm 6 mps 753 mmHg 64%
    12:00 +16°C° 0 mm 5 mps 753 mmHg 62%
    13:00 +16°C° 0 mm 5 mps 752 mmHg 61%
    14:00 +16°C° 0 mm 5 mps 752 mmHg 60%
    15:00 +15°C° 0.1 mm 5 mps 752 mmHg 65%
    16:00 +14°C° 0.1 mm 4 mps 753 mmHg 70%
    17:00 +13°C° 0.1 mm 4 mps 753 mmHg 76%
    18:00 +13°C° 0.1 mm 4 mps 753 mmHg 77%
    19:00 +12°C° 0.1 mm 4 mps 754 mmHg 78%
    20:00 +12°C° 0.1 mm 4 mps 754 mmHg 79%
    21:00 +12°C° 0 mm 4 mps 754 mmHg 79%
    22:00 +12°C° 0 mm 4 mps 754 mmHg 80%
    23:00 +12°C° 0 mm 4 mps 754 mmHg 80%

    22 November, Friday

    Time Temperature Precipitation Wind Pressure Humidity
    00:00 +11°C° 0 mm 3 mps 754 mmHg 80%
    01:00 +11°C° 0 mm 3 mps 754 mmHg 81%
    02:00 +11°C° 0 mm 3 mps 754 mmHg 81%
    03:00 +11°C° 0.1 mm 3 mps 754 mmHg 81%
    04:00 +13°C° 0.1 mm 2 mps 754 mmHg 80%
    05:00 +13°C° 0.1 mm 2 mps 754 mmHg 80%
    06:00 +13°C° 0.8 mm 2 mps 754 mmHg 84%
    07:00 +13°C° 0.8 mm 2 mps 754 mmHg 88%
    08:00 +13°C° 0.8 mm 2 mps 754 mmHg 91%
    09:00 +12°C° 0.6 mm 3 mps 754 mmHg 91%
    10:00 +12°C° 0.6 mm 3 mps 754 mmHg 91%
    11:00 +12°C° 0.6 mm 3 mps 754 mmHg 90%
    12:00 +12°C° 0.4 mm 3 mps 754 mmHg 91%
    13:00 +13°C° 0.4 mm 2 mps 753 mmHg 92%
    14:00 +13°C° 0.4 mm 2 mps 753 mmHg 92%
    15:00 +13°C° 0.1 mm 2 mps 753 mmHg 92%
    16:00 +13°C° 0.1 mm 2 mps 754 mmHg 92%
    17:00 +13°C° 0.1 mm 2 mps 754 mmHg 92%
    18:00 +13°C° 0.1 mm 2 mps 755 mmHg 92%
    19:00 +13°C° 0.1 mm 2 mps 755 mmHg 93%
    20:00 +12°C° 0.1 mm 2 mps 756 mmHg 93%
    21:00 +12°C° 0 mm 2 mps 756 mmHg 94%
    22:00 +10°C° 0 mm 2 mps 757 mmHg 95%
    23:00 +11°C° 0 mm 1 mps 757 mmHg 95%
    Show more